| time (UTC) | temp F | wind direction | speed MPH | gust MPH | rain 1hr in | rain 24hr in | rain mn in | humidity % | barometer mb |
| 20260906093002 | 59 | 331 | 0.0 | 2.0 | 0.00 | 0.01 | 0.00 | 87 | 1013.0 |
| 20260906092502 | 59 | 323 | 0.0 | 2.0 | 0.00 | 0.01 | 0.00 | 86 | 1013.0 |
| 20260906092003 | 59 | 331 | 0.0 | 1.0 | 0.00 | 0.01 | 0.00 | 86 | 1013.0 |
| 20260906091502 | 59 | 0 | 0.0 | 0.0 | 0.00 | 0.01 | 0.00 | 86 | 1013.0 |
| 20260906091023 | 59 | 0 | 0.0 | 0.0 | 0.00 | 0.01 | 0.00 | 86 | 1013.1 |
| 20260906090502 | 59 | 0 | 0.0 | 0.0 | 0.00 | 0.01 | 0.00 | 86 | 1013.1 |
| 20260906090002 | 59 | 0 | 0.0 | 0.0 | 0.00 | 0.01 | 0.00 | 86 | 1013.0 |
| 20260906085523 | 59 | 0 | 0.0 | 0.0 | 0.00 | 0.01 | 0.00 | 85 | 1013.0 |
| 20260906085023 | 59 | 0 | 0.0 | 0.0 | 0.00 | 0.01 | 0.00 | 85 | 1013.0 |
| 20260906084503 | 59 | 0 | 0.0 | 0.0 | 0.00 | 0.01 | 0.00 | 85 | 1013.0 |
| 20260906084003 | 59 | 0 | 0.0 | 0.0 | 0.00 | 0.01 | 0.00 | 84 | 1013.0 |
| 20260906083523 | 59 | 0 | 0.0 | 0.0 | 0.00 | 0.01 | 0.00 | 84 | 1013.1 |
| 20260906083023 | 59 | 0 | 0.0 | 0.0 | 0.00 | 0.01 | 0.00 | 84 | 1013.1 |
| 20260906082502 | 60 | 0 | 0.0 | 0.0 | 0.00 | 0.01 | 0.00 | 84 | 1013.1 |
| 20260906082002 | 60 | 0 | 0.0 | 0.0 | 0.00 | 0.01 | 0.00 | 84 | 1013.1 |
| 20260906081503 | 60 | 0 | 0.0 | 0.0 | 0.00 | 0.01 | 0.00 | 83 | 1013.1 |
| 20260906081002 | 60 | 0 | 0.0 | 0.0 | 0.00 | 0.01 | 0.00 | 83 | 1013.1 |
| 20260906080503 | 60 | 0 | 0.0 | 0.0 | 0.00 | 0.01 | 0.00 | 83 | 1013.1 |
| 20260906080024 | 60 | 0 | 0.0 | 0.0 | 0.00 | 0.01 | 0.00 | 83 | 1013.1 |
| 20260906075502 | 60 | 0 | 0.0 | 0.0 | 0.00 | 0.01 | 0.00 | 83 | 1013.1 |
| 20260906075002 | 60 | 0 | 0.0 | 0.0 | 0.00 | 0.01 | 0.00 | 83 | 1013.1 |
| 20260906074503 | 60 | 326 | 0.0 | 2.0 | 0.00 | 0.01 | 0.00 | 83 | 1013.1 |
| 20260906074002 | 60 | 325 | 1.0 | 2.0 | 0.00 | 0.01 | 0.00 | 83 | 1013.1 |
| 20260906073503 | 60 | 314 | 1.0 | 2.0 | 0.00 | 0.01 | 0.00 | 83 | 1013.0 |
| 20260906073023 | 60 | 298 | 1.0 | 2.0 | 0.00 | 0.01 | 0.00 | 83 | 1013.0 |
| 20260906072502 | 60 | 290 | 0.0 | 2.0 | 0.00 | 0.01 | 0.00 | 82 | 1013.0 |
| 20260906072003 | 60 | 289 | 0.0 | 1.0 | 0.00 | 0.01 | 0.00 | 82 | 1013.0 |
| 20260906071502 | 60 | 297 | 0.0 | 3.0 | 0.00 | 0.01 | 0.00 | 82 | 1013.0 |
| 20260906071002 | 60 | 294 | 0.0 | 3.0 | 0.00 | 0.01 | 0.00 | 82 | 1013.1 |
| 20260906070502 | 60 | 0 | 0.0 | 0.0 | 0.00 | 0.01 | 0.00 | 81 | 1013.2 |
| 20260906070024 | 60 | 0 | 0.0 | 0.0 | 0.00 | 0.01 | 0.00 | 81 | 1013.2 |
| 20260906065502 | 60 | 0 | 0.0 | 0.0 | 0.00 | 0.01 | 0.01 | 81 | 1013.2 |
| 20260906065024 | 60 | 0 | 0.0 | 0.0 | 0.00 | 0.01 | 0.01 | 81 | 1013.1 |
| 20260906064524 | 60 | 269 | 0.0 | 1.0 | 0.00 | 0.01 | 0.01 | 81 | 1013.1 |
| 20260906064003 | 60 | 269 | 0.0 | 1.0 | 0.00 | 0.01 | 0.01 | 81 | 1013.1 |
| 20260906063502 | 60 | 281 | 0.0 | 1.0 | 0.00 | 0.01 | 0.01 | 81 | 1013.1 |
| 20260906063002 | 60 | 283 | 0.0 | 2.0 | 0.00 | 0.01 | 0.01 | 81 | 1013.2 |
| 20260906062502 | 60 | 288 | 0.0 | 2.0 | 0.00 | 0.01 | 0.01 | 81 | 1013.3 |
| 20260906062003 | 60 | 0 | 0.0 | 0.0 | 0.00 | 0.01 | 0.01 | 81 | 1013.3 |
| 20260906061503 | 60 | 0 | 0.0 | 0.0 | 0.00 | 0.01 | 0.01 | 80 | 1013.3 |
| 20260906061002 | 60 | 0 | 0.0 | 0.0 | 0.00 | 0.01 | 0.01 | 80 | 1013.3 |
| 20260906060502 | 60 | 0 | 0.0 | 0.0 | 0.00 | 0.01 | 0.01 | 80 | 1013.3 |
| 20260906060003 | 60 | 0 | 0.0 | 0.0 | 0.00 | 0.01 | 0.01 | 79 | 1013.3 |
| 20260906055503 | 60 | 0 | 0.0 | 0.0 | 0.00 | 0.01 | 0.01 | 79 | 1013.4 |
| 20260906055003 | 60 | 0 | 0.0 | 0.0 | 0.00 | 0.01 | 0.01 | 79 | 1013.5 |
| 20260906054502 | 60 | 0 | 0.0 | 0.0 | 0.00 | 0.01 | 0.01 | 79 | 1013.5 |
| 20260906054003 | 60 | 0 | 0.0 | 0.0 | 0.00 | 0.01 | 0.01 | 78 | 1013.5 |
| 20260906053502 | 60 | 0 | 0.0 | 0.0 | 0.00 | 0.01 | 0.01 | 78 | 1013.5 |
| 20260906053003 | 60 | 0 | 0.0 | 0.0 | 0.00 | 0.01 | 0.01 | 78 | 1013.5 |
| 20260906052502 | 60 | 0 | 0.0 | 0.0 | 0.00 | 0.01 | 0.01 | 78 | 1013.5 |
| 20260906052024 | 59 | 319 | 0.0 | 1.0 | 0.00 | 0.01 | 0.01 | 78 | 1013.5 |
| 20260906051503 | 59 | 312 | 0.0 | 1.0 | 0.00 | 0.01 | 0.01 | 78 | 1013.4 |
| 20260906051003 | 60 | 300 | 0.0 | 1.0 | 0.00 | 0.01 | 0.01 | 78 | 1013.5 |
| 20260906050524 | 60 | 0 | 0.0 | 0.0 | 0.00 | 0.01 | 0.01 | 78 | 1013.5 |
| 20260906050002 | 60 | 0 | 0.0 | 0.0 | 0.00 | 0.01 | 0.01 | 77 | 1013.3 |
| 20260906045503 | 60 | 0 | 0.0 | 0.0 | 0.00 | 0.01 | 0.01 | 77 | 1013.4 |
| 20260906045002 | 60 | 0 | 0.0 | 0.0 | 0.00 | 0.01 | 0.01 | 76 | 1013.4 |
| 20260906044503 | 60 | 0 | 0.0 | 0.0 | 0.00 | 0.01 | 0.01 | 76 | 1013.4 |
| 20260906044024 | 60 | 0 | 0.0 | 0.0 | 0.00 | 0.01 | 0.01 | 75 | 1013.5 |
| 20260906043503 | 60 | 0 | 0.0 | 0.0 | 0.00 | 0.01 | 0.01 | 75 | 1013.6 |
| 20260906043023 | 61 | 0 | 0.0 | 0.0 | 0.00 | 0.01 | 0.01 | 74 | 1013.6 |
| 20260906042502 | 61 | 0 | 0.0 | 0.0 | 0.00 | 0.01 | 0.01 | 74 | 1013.6 |
| 20260906042003 | 61 | 0 | 0.0 | 0.0 | 0.00 | 0.01 | 0.01 | 74 | 1013.6 |
| 20260906041502 | 61 | 0 | 0.0 | 0.0 | 0.00 | 0.01 | 0.01 | 74 | 1013.7 |
| 20260906041002 | 62 | 0 | 0.0 | 0.0 | 0.00 | 0.01 | 0.01 | 73 | 1013.7 |
| 20260906040502 | 62 | 0 | 0.0 | 0.0 | 0.00 | 0.01 | 0.01 | 72 | 1013.8 |
| 20260906040002 | 62 | 0 | 0.0 | 0.0 | 0.00 | 0.01 | 0.01 | 71 | 1013.7 |
| 20260906035524 | 62 | 0 | 0.0 | 0.0 | 0.00 | 0.01 | 0.01 | 71 | 1013.7 |
| 20260906035003 | 63 | 0 | 0.0 | 0.0 | 0.00 | 0.01 | 0.01 | 71 | 1013.7 |
| 20260906034504 | 63 | 0 | 0.0 | 0.0 | 0.00 | 0.01 | 0.01 | 70 | 1013.6 |
| 20260906034002 | 63 | 0 | 0.0 | 0.0 | 0.00 | 0.01 | 0.01 | 69 | 1013.5 |
| 20260906033524 | 64 | 0 | 0.0 | 0.0 | 0.00 | 0.01 | 0.01 | 69 | 1013.5 |
| 20260906033002 | 64 | 0 | 0.0 | 0.0 | 0.00 | 0.01 | 0.01 | 68 | 1013.4 |
| 20260906032502 | 64 | 0 | 0.0 | 0.0 | 0.00 | 0.01 | 0.01 | 66 | 1013.3 |
| 20260906032002 | 64 | 0 | 0.0 | 0.0 | 0.00 | 0.01 | 0.01 | 66 | 1013.3 |
| 20260906031503 | 65 | 0 | 0.0 | 0.0 | 0.00 | 0.01 | 0.01 | 66 | 1013.3 |
| 20260906031003 | 65 | 0 | 0.0 | 0.0 | 0.00 | 0.01 | 0.01 | 66 | 1013.2 |
| 20260906030502 | 65 | 316 | 0.0 | 1.0 | 0.00 | 0.01 | 0.01 | 66 | 1013.2 |
| 20260906030002 | 65 | 312 | 0.0 | 1.0 | 0.00 | 0.01 | 0.01 | 65 | 1013.2 |
| 20260906025502 | 66 | 309 | 0.0 | 1.0 | 0.00 | 0.01 | 0.01 | 67 | 1013.2 |
| 20260906025002 | 66 | 0 | 0.0 | 0.0 | 0.00 | 0.01 | 0.01 | 67 | 1013.2 |
| 20260906024503 | 66 | 0 | 0.0 | 0.0 | 0.00 | 0.01 | 0.01 | 66 | 1013.2 |
| 20260906024002 | 67 | 0 | 0.0 | 0.0 | 0.00 | 0.01 | 0.01 | 65 | 1013.1 |
| 20260906023502 | 67 | 0 | 0.0 | 0.0 | 0.00 | 0.01 | 0.01 | 64 | 1013.1 |
| 20260906023003 | 68 | 0 | 0.0 | 0.0 | 0.00 | 0.01 | 0.01 | 64 | 1013.0 |
| 20260906022523 | 68 | 0 | 0.0 | 0.0 | 0.00 | 0.01 | 0.01 | 63 | 1013.1 |
| 20260906022003 | 68 | 0 | 0.0 | 0.0 | 0.00 | 0.01 | 0.01 | 62 | 1013.1 |
| 20260906021502 | 68 | 0 | 0.0 | 0.0 | 0.00 | 0.01 | 0.01 | 61 | 1013.1 |
| 20260906021002 | 69 | 0 | 0.0 | 0.0 | 0.00 | 0.01 | 0.01 | 60 | 1013.1 |
| 20260906020503 | 69 | 272 | 0.0 | 2.0 | 0.00 | 0.01 | 0.01 | 60 | 1013.2 |
| 20260906020024 | 69 | 272 | 0.0 | 2.0 | 0.00 | 0.01 | 0.01 | 59 | 1013.1 |
| 20260906015524 | 69 | 281 | 0.0 | 1.0 | 0.00 | 0.01 | 0.01 | 59 | 1013.2 |
| 20260906015003 | 69 | 273 | 0.0 | 2.0 | 0.00 | 0.01 | 0.01 | 58 | 1013.2 |
| 20260906014503 | 70 | 267 | 0.0 | 2.0 | 0.00 | 0.01 | 0.01 | 57 | 1013.3 |
| 20260906014024 | 70 | 260 | 0.0 | 1.0 | 0.00 | 0.01 | 0.01 | 56 | 1013.3 |
| 20260906013502 | 71 | 259 | 0.0 | 1.0 | 0.00 | 0.01 | 0.01 | 55 | 1013.3 |
| 20260906013003 | 71 | 313 | 0.0 | 1.0 | 0.00 | 0.01 | 0.01 | 55 | 1013.3 |
| 20260906012503 | 71 | 320 | 0.0 | 1.0 | 0.00 | 0.01 | 0.01 | 55 | 1013.3 |
| 20260906012002 | 71 | 323 | 0.0 | 1.0 | 0.00 | 0.01 | 0.01 | 53 | 1013.3 |
| 20260906011524 | 72 | 268 | 1.0 | 2.0 | 0.00 | 0.01 | 0.01 | 53 | 1013.2 |
| 20260906011003 | 72 | 267 | 1.0 | 2.0 | 0.00 | 0.01 | 0.01 | 52 | 1013.3 |
| 20260906010524 | 72 | 267 | 1.0 | 2.0 | 0.00 | 0.01 | 0.01 | 51 | 1013.2 |
| 20260906010003 | 72 | 257 | 1.0 | 2.0 | 0.00 | 0.01 | 0.01 | 53 | 1013.2 |
| 20260906005503 | 72 | 259 | 1.0 | 2.0 | 0.00 | 0.01 | 0.01 | 54 | 1013.2 |
| 20260906005002 | 71 | 268 | 1.0 | 2.0 | 0.00 | 0.01 | 0.01 | 54 | 1013.2 |
| 20260906004524 | 72 | 271 | 1.0 | 4.0 | 0.00 | 0.01 | 0.01 | 53 | 1013.3 |
| 20260906004003 | 72 | 274 | 1.0 | 4.0 | 0.00 | 0.02 | 0.01 | 53 | 1013.2 |
| 20260906003523 | 72 | 265 | 1.0 | 2.0 | 0.00 | 0.02 | 0.01 | 52 | 1013.3 |
| 20260906003002 | 72 | 258 | 1.0 | 2.0 | 0.00 | 0.02 | 0.01 | 53 | 1013.3 |
| 20260906002502 | 72 | 270 | 1.0 | 2.0 | 0.00 | 0.03 | 0.01 | 52 | 1013.3 |
| 20260906002002 | 72 | 272 | 1.0 | 2.0 | 0.00 | 0.03 | 0.01 | 51 | 1013.3 |
| 20260906001503 | 73 | 286 | 1.0 | 2.0 | 0.00 | 0.03 | 0.01 | 50 | 1013.4 |
| 20260906001003 | 73 | 296 | 0.0 | 3.0 | 0.00 | 0.03 | 0.01 | 50 | 1013.3 |
| 20260906000502 | 73 | 282 | 0.0 | 3.0 | 0.00 | 0.03 | 0.01 | 50 | 1013.3 |
| 20260906000024 | 73 | 277 | 0.0 | 1.0 | 0.00 | 0.03 | 0.01 | 50 | 1013.3 |
| 20260905235502 | 73 | 271 | 1.0 | 2.0 | 0.00 | 0.03 | 0.01 | 50 | 1013.4 |
| 20260905235003 | 74 | 276 | 1.0 | 2.0 | 0.00 | 0.03 | 0.01 | 49 | 1013.4 |
| 20260905234503 | 74 | 282 | 1.0 | 2.0 | 0.00 | 0.03 | 0.01 | 49 | 1013.4 |
| 20260905234003 | 74 | 285 | 1.0 | 2.0 | 0.00 | 0.03 | 0.01 | 49 | 1013.4 |
| 20260905233502 | 74 | 289 | 1.0 | 2.0 | 0.00 | 0.03 | 0.01 | 50 | 1013.5 |
| 20260905233003 | 74 | 264 | 1.0 | 2.0 | 0.00 | 0.03 | 0.01 | 50 | 1013.5 |
| 20260905232502 | 73 | 218 | 1.0 | 2.0 | 0.00 | 0.03 | 0.01 | 51 | 1013.5 |
| 20260905232002 | 73 | 231 | 0.0 | 1.0 | 0.00 | 0.03 | 0.01 | 50 | 1013.6 |
| 20260905231503 | 73 | 208 | 0.0 | 2.0 | 0.00 | 0.03 | 0.01 | 51 | 1013.6 |
| 20260905231002 | 73 | 214 | 0.0 | 2.0 | 0.00 | 0.03 | 0.01 | 51 | 1013.6 |
| 20260905230503 | 72 | 351 | 0.0 | 1.0 | 0.00 | 0.03 | 0.01 | 53 | 1013.7 |
| 20260905230002 | 72 | 325 | 0.0 | 1.0 | 0.00 | 0.03 | 0.01 | 52 | 1013.7 |
| 20260905225503 | 72 | 279 | 0.0 | 1.0 | 0.00 | 0.03 | 0.01 | 53 | 1013.7 |
| 20260905225003 | 72 | 233 | 0.0 | 1.0 | 0.00 | 0.03 | 0.01 | 53 | 1013.8 |
| 20260905224503 | 72 | 0 | 0.0 | 0.0 | 0.00 | 0.03 | 0.01 | 53 | 1013.8 |
| 20260905224024 | 72 | 288 | 0.0 | 2.0 | 0.00 | 0.03 | 0.01 | 53 | 1013.9 |
| 20260905223503 | 72 | 298 | 1.0 | 2.0 | 0.00 | 0.03 | 0.01 | 52 | 1013.9 |
| 20260905223024 | 72 | 302 | 1.0 | 2.0 | 0.00 | 0.03 | 0.01 | 52 | 1013.9 |
| 20260905222503 | 72 | 288 | 0.0 | 2.0 | 0.00 | 0.03 | 0.01 | 53 | 1013.9 |
| 20260905222024 | 72 | 281 | 0.0 | 2.0 | 0.00 | 0.03 | 0.01 | 53 | 1013.9 |
| 20260905221503 | 72 | 277 | 0.0 | 2.0 | 0.00 | 0.03 | 0.01 | 53 | 1014.1 |
| 20260905221023 | 72 | 278 | 0.0 | 1.0 | 0.00 | 0.03 | 0.01 | 52 | 1014.0 |
| 20260905220502 | 72 | 287 | 0.0 | 2.0 | 0.00 | 0.03 | 0.01 | 53 | 1014.0 |
| 20260905220002 | 72 | 281 | 1.0 | 2.0 | 0.00 | 0.03 | 0.01 | 53 | 1014.1 |
| 20260905215503 | 71 | 282 | 0.0 | 2.0 | 0.00 | 0.03 | 0.01 | 53 | 1014.1 |
| 20260905215003 | 71 | 291 | 0.0 | 2.0 | 0.00 | 0.03 | 0.01 | 54 | 1014.2 |
| 20260905214502 | 71 | 282 | 0.0 | 2.0 | 0.00 | 0.03 | 0.01 | 54 | 1014.2 |
| 20260905214003 | 71 | 246 | 1.0 | 2.0 | 0.00 | 0.03 | 0.01 | 53 | 1014.3 |
| 20260905213524 | 71 | 226 | 1.0 | 2.0 | 0.00 | 0.03 | 0.01 | 53 | 1014.3 |
| 20260905213003 | 71 | 223 | 0.0 | 2.0 | 0.00 | 0.03 | 0.01 | 53 | 1014.3 |
| 20260905212503 | 72 | 213 | 1.0 | 2.0 | 0.00 | 0.03 | 0.01 | 53 | 1014.3 |
| 20260905212003 | 72 | 215 | 1.0 | 2.0 | 0.00 | 0.04 | 0.01 | 53 | 1014.3 |
| 20260905211502 | 72 | 240 | 1.0 | 2.0 | 0.00 | 0.04 | 0.01 | 55 | 1014.3 |
| 20260905211002 | 72 | 252 | 1.0 | 2.0 | 0.00 | 0.05 | 0.01 | 55 | 1014.3 |
| 20260905210503 | 71 | 277 | 1.0 | 2.0 | 0.00 | 0.06 | 0.01 | 56 | 1014.4 |
| 20260905210003 | 71 | 291 | 1.0 | 2.0 | 0.00 | 0.07 | 0.01 | 54 | 1014.4 |
| 20260905205524 | 71 | 278 | 1.0 | 2.0 | 0.00 | 0.09 | 0.01 | 55 | 1014.4 |
| 20260905205003 | 71 | 278 | 0.0 | 1.0 | 0.00 | 0.09 | 0.01 | 56 | 1014.4 |
| 20260905204503 | 71 | 277 | 0.0 | 2.0 | 0.00 | 0.09 | 0.01 | 58 | 1014.6 |
| 20260905204003 | 70 | 265 | 0.0 | 2.0 | 0.00 | 0.09 | 0.01 | 57 | 1014.5 |
| 20260905203502 | 71 | 230 | 0.0 | 2.0 | 0.00 | 0.09 | 0.01 | 55 | 1014.6 |
| 20260905203003 | 71 | 204 | 0.0 | 2.0 | 0.00 | 0.09 | 0.01 | 56 | 1014.6 |
| 20260905202502 | 70 | 31 | 0.0 | 2.0 | 0.00 | 0.09 | 0.01 | 58 | 1014.6 |
| 20260905202002 | 70 | 99 | 0.0 | 1.0 | 0.00 | 0.09 | 0.01 | 60 | 1014.5 |
| 20260905201502 | 69 | 104 | 0.0 | 1.0 | 0.00 | 0.09 | 0.01 | 57 | 1014.6 |
| 20260905201003 | 70 | 59 | 0.0 | 1.0 | 0.00 | 0.09 | 0.01 | 57 | 1014.6 |
| 20260905200524 | 70 | 342 | 0.0 | 1.0 | 0.00 | 0.09 | 0.01 | 56 | 1014.6 |
| 20260905200024 | 70 | 325 | 0.0 | 1.0 | 0.00 | 0.09 | 0.01 | 57 | 1014.7 |
| 20260905195502 | 70 | 324 | 0.0 | 2.0 | 0.00 | 0.09 | 0.01 | 61 | 1014.7 |
| 20260905195002 | 70 | 344 | 0.0 | 2.0 | 0.00 | 0.09 | 0.01 | 60 | 1014.7 |
| 20260905194502 | 70 | 316 | 1.0 | 2.0 | 0.00 | 0.09 | 0.01 | 58 | 1014.8 |
| 20260905194003 | 70 | 286 | 1.0 | 2.0 | 0.00 | 0.09 | 0.01 | 59 | 1014.8 |
| 20260905193503 | 70 | 281 | 0.0 | 3.0 | 0.00 | 0.09 | 0.01 | 60 | 1014.8 |
| 20260905193003 | 70 | 323 | 1.0 | 3.0 | 0.00 | 0.09 | 0.01 | 60 | 1014.8 |
| 20260905192503 | 70 | 319 | 1.0 | 2.0 | 0.00 | 0.09 | 0.01 | 60 | 1014.8 |
| 20260905192023 | 70 | 339 | 1.0 | 2.0 | 0.00 | 0.09 | 0.01 | 60 | 1014.9 |
| 20260905191503 | 70 | 334 | 1.0 | 2.0 | 0.00 | 0.09 | 0.01 | 60 | 1014.9 |
| 20260905191024 | 71 | 317 | 1.0 | 2.0 | 0.00 | 0.09 | 0.01 | 60 | 1014.9 |
| 20260905190524 | 70 | 317 | 0.0 | 2.0 | 0.00 | 0.09 | 0.01 | 62 | 1014.9 |
| 20260905190003 | 69 | 346 | 1.0 | 2.0 | 0.00 | 0.09 | 0.01 | 62 | 1014.9 |
| 20260905185502 | 68 | 1 | 1.0 | 2.0 | 0.00 | 0.09 | 0.01 | 63 | 1015.0 |
| 20260905185003 | 68 | 345 | 1.0 | 2.0 | 0.00 | 0.09 | 0.01 | 64 | 1015.0 |
| 20260905184524 | 68 | 339 | 1.0 | 2.0 | 0.00 | 0.09 | 0.01 | 65 | 1015.0 |
| 20260905184002 | 68 | 326 | 1.0 | 2.0 | 0.00 | 0.09 | 0.01 | 65 | 1015.0 |
| 20260905183503 | 68 | 330 | 1.0 | 4.0 | 0.00 | 0.09 | 0.01 | 65 | 1015.1 |
| 20260905183003 | 68 | 340 | 1.0 | 4.0 | 0.00 | 0.09 | 0.01 | 65 | 1015.2 |
| 20260905182503 | 68 | 336 | 1.0 | 3.0 | 0.00 | 0.09 | 0.01 | 64 | 1015.2 |
| 20260905182003 | 68 | 331 | 0.0 | 3.0 | 0.00 | 0.09 | 0.01 | 66 | 1015.2 |
| 20260905181502 | 67 | 32 | 0.0 | 2.0 | 0.00 | 0.09 | 0.01 | 67 | 1015.2 |
| 20260905181002 | 67 | 20 | 1.0 | 2.0 | 0.00 | 0.09 | 0.01 | 68 | 1015.3 |
| 20260905180503 | 66 | 356 | 0.0 | 2.0 | 0.00 | 0.09 | 0.01 | 67 | 1015.3 |
| 20260905180003 | 66 | 2 | 0.0 | 2.0 | 0.00 | 0.09 | 0.01 | 69 | 1015.3 |
| 20260905175524 | 66 | 341 | 1.0 | 3.0 | 0.00 | 0.09 | 0.01 | 69 | 1015.3 |
| 20260905175024 | 65 | 328 | 1.0 | 3.0 | 0.00 | 0.09 | 0.01 | 70 | 1015.4 |
| 20260905174503 | 65 | 344 | 1.0 | 2.0 | 0.00 | 0.09 | 0.01 | 71 | 1015.4 |
| 20260905174003 | 65 | 359 | 1.0 | 3.0 | 0.00 | 0.09 | 0.01 | 70 | 1015.4 |
| 20260905173523 | 65 | 354 | 0.0 | 3.0 | 0.00 | 0.09 | 0.01 | 71 | 1015.4 |
| 20260905173003 | 64 | 338 | 0.0 | 2.0 | 0.00 | 0.09 | 0.01 | 74 | 1015.4 |
| 20260905172502 | 64 | 360 | 0.0 | 2.0 | 0.00 | 0.09 | 0.01 | 76 | 1015.4 |
| 20260905172003 | 63 | 332 | 1.0 | 7.0 | 0.00 | 0.09 | 0.01 | 77 | 1015.4 |
| 20260905171503 | 62 | 326 | 1.0 | 7.0 | 0.00 | 0.09 | 0.01 | 77 | 1015.4 |
| 20260905171003 | 62 | 331 | 1.0 | 4.0 | 0.00 | 0.09 | 0.01 | 78 | 1015.4 |
| 20260905170524 | 62 | 339 | 1.0 | 4.0 | 0.00 | 0.09 | 0.01 | 79 | 1015.4 |
| 20260905170003 | 62 | 338 | 1.0 | 4.0 | 0.00 | 0.09 | 0.01 | 80 | 1015.4 |
| 20260905165502 | 61 | 338 | 0.0 | 2.0 | 0.00 | 0.09 | 0.01 | 80 | 1015.5 |
| 20260905165003 | 61 | 53 | 0.0 | 1.0 | 0.00 | 0.09 | 0.01 | 83 | 1015.4 |
| 20260905164503 | 60 | 36 | 0.0 | 1.0 | 0.00 | 0.09 | 0.01 | 84 | 1015.5 |
| 20260905164024 | 60 | 334 | 1.0 | 3.0 | 0.00 | 0.09 | 0.01 | 85 | 1015.5 |
| 20260905163524 | 59 | 331 | 1.0 | 5.0 | 0.00 | 0.09 | 0.01 | 85 | 1015.4 |
| 20260905163003 | 59 | 358 | 1.0 | 5.0 | 0.00 | 0.09 | 0.01 | 87 | 1015.4 |
| 20260905162503 | 59 | 18 | 1.0 | 2.0 | 0.00 | 0.09 | 0.01 | 88 | 1015.4 |
| 20260905162024 | 58 | 6 | 1.0 | 2.0 | 0.00 | 0.09 | 0.01 | 89 | 1015.4 |
| 20260905161503 | 58 | 8 | 0.0 | 3.0 | 0.00 | 0.09 | 0.01 | 91 | 1015.5 |
| 20260905161003 | 57 | 9 | 0.0 | 3.0 | 0.00 | 0.09 | 0.01 | 92 | 1015.5 |
| 20260905160503 | 57 | 0 | 0.0 | 0.0 | 0.00 | 0.09 | 0.01 | 93 | 1015.4 |
| 20260905160003 | 56 | 0 | 0.0 | 0.0 | 0.00 | 0.09 | 0.01 | 94 | 1015.5 |
| 20260905155503 | 56 | 60 | 0.0 | 1.0 | 0.00 | 0.09 | 0.01 | 95 | 1015.5 |
| 20260905155003 | 56 | 60 | 0.0 | 1.0 | 0.00 | 0.09 | 0.01 | 95 | 1015.5 |
| 20260905154503 | 56 | 0 | 0.0 | 0.0 | 0.00 | 0.09 | 0.01 | 95 | 1015.5 |
| 20260905154003 | 56 | 0 | 0.0 | 0.0 | 0.00 | 0.09 | 0.01 | 96 | 1015.5 |
| 20260905153503 | 55 | 0 | 0.0 | 0.0 | 0.00 | 0.09 | 0.01 | 96 | 1015.5 |
| 20260905153003 | 55 | 0 | 0.0 | 0.0 | 0.00 | 0.09 | 0.01 | 96 | 1015.5 |
| 20260905152503 | 55 | 0 | 0.0 | 0.0 | 0.00 | 0.09 | 0.01 | 96 | 1015.5 |
| 20260905152003 | 54 | 0 | 0.0 | 0.0 | 0.00 | 0.10 | 0.01 | 96 | 1015.5 |
| 20260905151503 | 54 | 0 | 0.0 | 0.0 | 0.00 | 0.11 | 0.01 | 95 | 1015.5 |
| 20260905151024 | 54 | 0 | 0.0 | 0.0 | 0.00 | 0.12 | 0.01 | 95 | 1015.5 |
| 20260905150524 | 54 | 0 | 0.0 | 0.0 | 0.00 | 0.13 | 0.01 | 95 | 1015.5 |
| 20260905150024 | 54 | 0 | 0.0 | 0.0 | 0.00 | 0.13 | 0.01 | 95 | 1015.5 |
| 20260905145502 | 54 | 0 | 0.0 | 0.0 | 0.00 | 0.14 | 0.01 | 95 | 1015.5 |
| 20260905145003 | 54 | 0 | 0.0 | 0.0 | 0.00 | 0.15 | 0.01 | 95 | 1015.6 |
| 20260905144503 | 54 | 325 | 0.0 | 1.0 | 0.00 | 0.15 | 0.01 | 95 | 1015.6 |
| 20260905144003 | 54 | 325 | 0.0 | 1.0 | 0.00 | 0.15 | 0.01 | 95 | 1015.5 |
| 20260905143503 | 54 | 0 | 0.0 | 0.0 | 0.00 | 0.15 | 0.01 | 95 | 1015.5 |
| 20260905143024 | 54 | 0 | 0.0 | 0.0 | 0.00 | 0.15 | 0.01 | 95 | 1015.5 |
| 20260905142503 | 54 | 0 | 0.0 | 0.0 | 0.00 | 0.15 | 0.01 | 95 | 1015.4 |
| 20260905142003 | 54 | 0 | 0.0 | 0.0 | 0.00 | 0.15 | 0.01 | 95 | 1015.4 |
| 20260905141503 | 54 | 0 | 0.0 | 0.0 | 0.00 | 0.15 | 0.01 | 95 | 1015.4 |
| 20260905141003 | 54 | 0 | 0.0 | 0.0 | 0.00 | 0.15 | 0.01 | 95 | 1015.4 |
| 20260905140503 | 53 | 0 | 0.0 | 0.0 | 0.00 | 0.15 | 0.01 | 95 | 1015.3 |
| 20260905140003 | 53 | 0 | 0.0 | 0.0 | 0.00 | 0.15 | 0.01 | 95 | 1015.3 |
| 20260905135524 | 53 | 0 | 0.0 | 0.0 | 0.00 | 0.15 | 0.01 | 95 | 1015.3 |
| 20260905135003 | 53 | 353 | 0.0 | 1.0 | 0.00 | 0.15 | 0.01 | 95 | 1015.3 |
| 20260905134503 | 53 | 353 | 0.0 | 1.0 | 0.00 | 0.15 | 0.01 | 95 | 1015.2 |
| 20260905134003 | 53 | 0 | 0.0 | 0.0 | 0.00 | 0.15 | 0.01 | 95 | 1015.2 |
| 20260905133503 | 53 | 0 | 0.0 | 0.0 | 0.00 | 0.15 | 0.01 | 94 | 1015.2 |
| 20260905133024 | 53 | 0 | 0.0 | 0.0 | 0.00 | 0.15 | 0.01 | 94 | 1015.1 |
| 20260905132503 | 53 | 0 | 0.0 | 0.0 | 0.00 | 0.15 | 0.01 | 94 | 1015.1 |
| 20260905132003 | 53 | 0 | 0.0 | 0.0 | 0.00 | 0.15 | 0.01 | 95 | 1015.1 |
| 20260905131503 | 53 | 0 | 0.0 | 0.0 | 0.00 | 0.15 | 0.01 | 95 | 1015.0 |
| 20260905131003 | 53 | 0 | 0.0 | 0.0 | 0.00 | 0.15 | 0.01 | 95 | 1015.0 |
| 20260905130503 | 53 | 0 | 0.0 | 0.0 | 0.01 | 0.15 | 0.01 | 95 | 1014.9 |
| 20260905130003 | 54 | 0 | 0.0 | 0.0 | 0.01 | 0.15 | 0.01 | 95 | 1014.9 |
| 20260905125503 | 54 | 0 | 0.0 | 0.0 | 0.01 | 0.15 | 0.01 | 95 | 1014.9 |
| 20260905125003 | 54 | 0 | 0.0 | 0.0 | 0.01 | 0.15 | 0.01 | 95 | 1015.0 |
| 20260905124503 | 54 | 0 | 0.0 | 0.0 | 0.01 | 0.15 | 0.01 | 95 | 1014.9 |
| 20260905124003 | 54 | 0 | 0.0 | 0.0 | 0.01 | 0.15 | 0.01 | 95 | 1014.8 |
| 20260905123503 | 54 | 0 | 0.0 | 0.0 | 0.01 | 0.15 | 0.01 | 95 | 1014.9 |
| 20260905123003 | 54 | 0 | 0.0 | 0.0 | 0.01 | 0.15 | 0.01 | 95 | 1014.8 |
| 20260905122524 | 54 | 0 | 0.0 | 0.0 | 0.01 | 0.15 | 0.01 | 95 | 1014.8 |
| 20260905122003 | 54 | 0 | 0.0 | 0.0 | 0.01 | 0.15 | 0.01 | 95 | 1014.9 |
| 20260905121503 | 54 | 0 | 0.0 | 0.0 | 0.01 | 0.15 | 0.01 | 95 | 1014.9 |
| 20260905121003 | 54 | 0 | 0.0 | 0.0 | 0.01 | 0.15 | 0.01 | 95 | 1014.9 |
| 20260905120503 | 54 | 0 | 0.0 | 0.0 | 0.00 | 0.14 | 0.00 | 95 | 1014.8 |
| 20260905120024 | 55 | 0 | 0.0 | 0.0 | 0.00 | 0.14 | 0.00 | 95 | 1014.9 |
| 20260905115503 | 55 | 0 | 0.0 | 0.0 | 0.00 | 0.14 | 0.00 | 95 | 1014.8 |
| 20260905115003 | 55 | 0 | 0.0 | 0.0 | 0.00 | 0.14 | 0.00 | 95 | 1014.8 |
| 20260905114524 | 55 | 0 | 0.0 | 0.0 | 0.00 | 0.14 | 0.00 | 95 | 1014.7 |
| 20260905114003 | 55 | 0 | 0.0 | 0.0 | 0.00 | 0.14 | 0.00 | 95 | 1014.7 |
| 20260905113503 | 55 | 0 | 0.0 | 0.0 | 0.00 | 0.14 | 0.00 | 95 | 1014.8 |
| 20260905113003 | 55 | 0 | 0.0 | 0.0 | 0.00 | 0.14 | 0.00 | 95 | 1014.8 |
| 20260905112524 | 55 | 0 | 0.0 | 0.0 | 0.00 | 0.15 | 0.00 | 95 | 1014.8 |
| 20260905112024 | 55 | 0 | 0.0 | 0.0 | 0.00 | 0.15 | 0.00 | 95 | 1014.7 |
| 20260905111503 | 55 | 0 | 0.0 | 0.0 | 0.00 | 0.16 | 0.00 | 95 | 1014.8 |
| 20260905111024 | 55 | 0 | 0.0 | 0.0 | 0.00 | 0.16 | 0.00 | 95 | 1014.8 |
| 20260905110503 | 55 | 0 | 0.0 | 0.0 | 0.00 | 0.17 | 0.00 | 95 | 1014.7 |
| 20260905110003 | 55 | 0 | 0.0 | 0.0 | 0.00 | 0.17 | 0.00 | 95 | 1014.8 |
| 20260905105503 | 55 | 0 | 0.0 | 0.0 | 0.00 | 0.17 | 0.00 | 95 | 1014.8 |
| 20260905105003 | 55 | 0 | 0.0 | 0.0 | 0.00 | 0.18 | 0.00 | 95 | 1014.7 |
| 20260905104524 | 55 | 0 | 0.0 | 0.0 | 0.00 | 0.18 | 0.00 | 95 | 1014.8 |
| 20260905104003 | 55 | 0 | 0.0 | 0.0 | 0.00 | 0.18 | 0.00 | 95 | 1014.7 |
| 20260905103503 | 55 | 0 | 0.0 | 0.0 | 0.00 | 0.18 | 0.00 | 95 | 1014.8 |
| 20260905103003 | 54 | 0 | 0.0 | 0.0 | 0.00 | 0.19 | 0.00 | 95 | 1014.8 |
| 20260905102503 | 54 | 0 | 0.0 | 0.0 | 0.00 | 0.19 | 0.00 | 95 | 1014.8 |
| 20260905102003 | 54 | 0 | 0.0 | 0.0 | 0.00 | 0.20 | 0.00 | 94 | 1014.8 |
| 20260905101503 | 54 | 0 | 0.0 | 0.0 | 0.00 | 0.20 | 0.00 | 94 | 1014.9 |
| 20260905101003 | 54 | 0 | 0.0 | 0.0 | 0.00 | 0.20 | 0.00 | 94 | 1014.8 |
| 20260905100503 | 54 | 0 | 0.0 | 0.0 | 0.00 | 0.20 | 0.00 | 94 | 1014.8 |
| 20260905100003 | 55 | 0 | 0.0 | 0.0 | 0.00 | 0.20 | 0.00 | 94 | 1014.8 |
| 20260905095503 | 55 | 0 | 0.0 | 0.0 | 0.00 | 0.20 | 0.00 | 94 | 1014.8 |
| 20260905095003 | 55 | 0 | 0.0 | 0.0 | 0.00 | 0.20 | 0.00 | 94 | 1014.8 |
| 20260905094524 | 55 | 0 | 0.0 | 0.0 | 0.00 | 0.20 | 0.00 | 94 | 1014.8 |
| 20260905094003 | 55 | 0 | 0.0 | 0.0 | 0.00 | 0.20 | 0.00 | 94 | 1014.8 |
| 20260905093503 | 55 | 0 | 0.0 | 0.0 | 0.00 | 0.20 | 0.00 | 94 | 1014.8 |